Flag for USA

Past Weather in Billings, Montana, USA — Yesterday and Last 2 Weeks

Now
74 °F

Partly sunny.


Feels Like: 77 °F
Forecast: 81 / 58 °F
Wind: 7 mph from Northeast

Location: Billings Logan International Airport
Current Time: Sep 18, 2020 at 6:45:56 pm
Latest Report: Sep 18, 2020 at 5:53 pm
Visibility: 7 mi
Pressure29.89 "Hg(26.80 "Hg at 946m altitude)
Humidity: 37%
Dew Point: 46 °F
Location of BillingsLocation

Past Weather in Billings — Graph

°F

Billings Temperature Yesterday

Maximum temperature yesterday: 75 °F (at 4:53 pm)
Minimum temperature yesterday: 47 °F (at 5:53 am)
Average temperature yesterday: 59 °F

High & Low Weather Summary for the Past Weeks

 TemperatureHumidityPressure
High100 °F (Sep 5, 2:53 pm)97% (Sep 7, 9:53 am)30.58 "Hg (Sep 7, 9:53 am)
Low33 °F (Sep 9, 5:53 am)7% (Sep 5, 5:53 pm)29.80 "Hg (Sep 5, 6:53 pm)
Average62 °F46%30.11 "Hg
* Reported Sep 3 4:53 pm — Sep 18 4:53 pm, Billings. Weather by CustomWeather, © 2020

Note: Actual official high and low records may vary slightly from our data, if they occured in-between our weather recording intervals... More about our weather records

Billings Weather History for the Previous 24 Hours

Scroll right to see more
 ConditionsComfort  
Time TempWeatherWind HumidityBarometerVisibility
4:53 pm
Fri, Sep 18
74 °FPartly sunny.8 mph37%29.90 "Hg7 mi
3:53 pm77 °FPartly sunny.7 mph31%29.91 "Hg7 mi
2:53 pm76 °FScattered clouds.5 mph31%29.93 "Hg7 mi
1:53 pm73 °FHaze.No wind32%29.96 "Hg6 mi
12:53 pm69 °FPassing clouds.7 mph41%29.99 "Hg8 mi
11:53 am64 °FPassing clouds.6 mph49%30.03 "Hg9 mi
10:53 am59 °FPassing clouds.7 mph56%30.06 "Hg9 mi
9:53 am54 °FPassing clouds.9 mph64%30.07 "Hg9 mi
8:53 am51 °FSunny.12 mph69%30.07 "Hg9 mi
7:53 am50 °FPassing clouds.12 mph68%30.08 "Hg9 mi
6:53 am48 °FClear.13 mph74%30.07 "Hg10 mi
5:53 am51 °FClear.6 mph63%30.08 "Hg10 mi
4:53 am50 °FClear.7 mph68%30.08 "Hg10 mi
3:53 am53 °FClear.7 mph64%30.08 "Hg10 mi
2:53 am53 °FClear.8 mph64%30.09 "Hg10 mi
1:53 am57 °FClear.3 mph51%30.09 "Hg10 mi
12:53 am57 °FClear.6 mph53%30.11 "Hg10 mi
11:53 pm
Thu, Sep 17
57 °FClear.9 mph53%30.12 "Hg10 mi
10:53 pm59 °FClear.6 mph49%30.14 "Hg10 mi
9:53 pm61 °FClear.10 mph48%30.15 "Hg10 mi
8:53 pm64 °FClear.9 mph45%30.15 "Hg10 mi
7:53 pm66 °FClear.9 mph49%30.14 "Hg9 mi
6:53 pm70 °FSunny.8 mph42%30.13 "Hg7 mi
Weather by CustomWeather, © 2020

See weather overview